CAPE
992 1316 1542 1610 1664 1644 1563 1488 1489 1531 1639 1693 1768 1949 2075 2059 2011 1993 2102 2081 1980 2252 2441 1826 1958 1957 1791 1504 1785 1582 1519 1385 1228 1456 1507 1665 1438 1317 1307 1444 1367 1242 1549
1029 1428 1584 1640 1728 1799 1731 1613 1624 1733 1892 1931 1869 1932 2046 2083 2041 2097 2157 2197 2300 2300 2192 1804 1932 1895 1552 1610 1497 1444 1342 1266 1298 1354 1570 1394 1445 1275 1242 1326 1259 1283 1402
1179 1446 1660 1696 1798 1867 1890 1838 1899 2025 2108 2099 2057 2005 2060 2145 2117 2124 2193 2290 2342 2455 2094 1799 1774 1868 1696 1639 1503 1491 1399 1320 1274 1324 1337 875 1162 1331 1286 1375 1386 1388 1225
1263 1443 1627 1768 1883 1931 1876 1885 1991 2168 2157 2232 2220 2174 2164 2229 2166 2087 2125 2233 2428 2487 2201 1944 1909 1889 1653 1495 1406 1387 1281 1136 1008 944 745 783 1225 1332 1262 1239 1266 1234 1237
1334 1456 1553 1769 1972 1970 1905 1897 1977 2120 2153 2181 2241 2341 2333 2350 2322 2172 2023 1988 2495 2536 2295 1984 1899 1663 1442 1198 1192 1203 1149 864 750 460 292 702 1015 1292 1301 1241 1278 1191 1203
1362 1430 1459 1604 1799 2004 2018 1959 1994 2025 1959 1978 2111 2390 2464 2469 2435 2152 1929 2051 2528 2376 2296 2197 2051 1243 1077 968 1021 1043 818 506 348 362 572 843 741 1145 1097 1168 1241 1123 1023
1221 1266 1354 1542 1685 1872 2058 2103 2029 1965 1910 1937 2057 2227 2375 2446 2247 2106 1807 1898 2200 1751 1565 1612 1377 923 1009 864 910 693 398 350 295 328 402 543 753 1108 1082 1098 1138 1125 1090
1192 1154 1214 1434 1625 1829 1909 1863 1951 1998 1908 1961 1991 2069 2267 2221 2119 1957 1731 1520 1444 996 878 1030 926 816 828 856 673 364 292 367 289 302 377 442 987 1040 1068 914 969 1024 955
1094 1078 1150 1409 1622 1636 1697 1672 1744 1938 1989 1973 1998 2012 2086 2040 1852 1671 1534 1213 953 782 684 701 571 618 523 631 415 251 283 283 208 223 365 552 976 1055 1070 892 814 682 609
1063 1072 1038 1108 1282 1246 1276 1498 1690 1888 1976 1979 1956 1903 1886 1915 1688 1165 994 919 724 684 596 533 333 331 385 306 229 149 227 266 224 214 274 436 1025 892 822 627 558 428 316
1344 1125 992 978 974 980 987 1269 1546 1658 1746 1771 1623 1564 1492 1252 907 804 420 692 356 334 414 348 177 115 127 206 110 104 142 87 131 128 75 617 881 812 733 620 578 406 204
1708 1279 1051 916 944 919 1261 1163 1170 1382 1177 1227 1207 1101 887 635 385 254 128 449 62 63 179 255 186 123 145 105 65 13 0 0 36 71 225 459 996 897 795 575 528 275 143
2060 1809 1453 1160 1094 1115 1356 804 783 1110 902 791 813 526 370 251 380 83 21 198 59 165 137 147 88 96 105 33 38 0 0 0 0 25 228 393 848 776 708 486 304 213 127
2121 2232 1925 1712 1580 1494 1382 894 821 839 764 659 457 470 463 251 166 138 118 77 117 66 57 9 14 31 88 57 24 0 0 0 0 27 127 261 460 659 603 487 261 152 61
1833 2411 2103 2102 2028 1825 1473 1121 1046 993 860 722 403 666 467 127 22 66 3 79 150 103 103 2 2 89 114 76 18 6 0 0 6 26 68 164 234 402 469 324 173 67 31
1732 2258 2208 1875 2246 1899 1637 1377 1228 1186 1047 693 470 630 409 235 45 26 0 85 138 97 71 16 0 41 146 94 28 1 0 0 0 0 6 3 21 73 229 241 136 60 36
0 1987 2304 1978 2032 1893 1532 1384 1032 919 944 880 599 517 489 138 80 22 1 12 93 76 68 66 17 36 28 77 34 0 0 0 0 0 0 0 0 0 3 43 41 40 26
0 1171 2430 2262 2002 1738 1506 1263 908 782 789 803 584 531 480 293 219 130 76 2 28 207 80 28 4 6 0 29 19 0 0 0 0 0 0 0 0 0 0 12 32 49 39
0 4 2290 2242 2063 1739 1232 1145 810 713 553 402 483 520 427 428 323 284 207 141 40 71 72 9 10 14 16 23 24 7 0 0 0 0 0 0 0 0 0 6 24 26 40
0 85 2124 2140 2016 1688 1162 794 554 579 477 486 272 515 358 371 237 239 199 62 143 106 5 2 0 0 9 30 106 44 0 0 0 0 0 0 0 0 0 0 9 11 24
0 608 1761 2030 1690 1434 1073 689 529 731 511 277 220 230 342 335 268 150 6 25 158 11 0 0 0 0 9 41 84 0 0 0 0 0 0 0 0 0 0 0 0 0 6
0 386 1828 1829 1390 1490 1109 827 554 272 383 452 144 183 199 172 86 63 41 29 29 0 2 2 0 0 6 29 0 0 1 0 0 0 0 0 0 0 0 0 0 0 0
0 1295 1710 1658 1375 1252 801 92 69 23 72 164 246 163 158 113 30 36 62 50 1 1 2 2 0 0 19 1 0 0 1 0 0 0 0 0 0 0 0 0 0 0 0
0 1045 1674 1674 1413 818 320 276 213 240 196 254 334 124 113 127 21 11 34 13 0 2 1 1 1 4 27 1 1 0 0 0 0 0 0 0 0 0 0 0 0 0 0
455 1417 1672 1640 1076 560 559 247 171 144 117 158 174 149 48 2 34 27 19 6 1 0 0 4 6 0 4 1 0 0 0 0 0 0 0 0 0 0 0 0 0 0 0
0 1561 1591 1496 938 598 446 239 208 184 134 182 191 171 82 36 22 14 38 27 1 0 6 17 16 1 5 0 0 0 0 0 0 0 0 0 0 0 0 0 0 0 0
CIN
-483 -386 -323 -339 -393 -389 -370 -337 -299 -265 -207 -152 -115 -87 -78 -71 -66 -49 -28 -21 -24 -1 0 0 0 -1 -3 -5 -5 -13 -22 -28 -21 -8 -1 0 0 0 0 0 0 0 0
-517 -365 -317 -313 -331 -341 -344 -306 -261 -211 -158 -114 -86 -65 -54 -52 -43 -31 -18 -9 -1 0 0 -1 0 0 -6 -6 -15 -19 -30 -42 -27 -10 0 0 0 0 0 0 0 0 0
-503 -390 -317 -298 -289 -288 -304 -262 -210 -159 -124 -96 -66 -52 -42 -29 -28 -23 -8 -2 0 0 0 0 0 0 -2 -9 -18 -18 -22 -24 -17 -4 -2 -9 -1 0 0 0 0 0 0
-537 -443 -356 -284 -251 -262 -289 -244 -185 -122 -111 -84 -60 -40 -30 -13 -15 -18 -8 -2 0 0 0 0 0 0 -1 -9 -16 -11 -12 -11 -16 -17 -28 -32 0 0 0 0 0 0 0
-519 -455 -381 -296 -241 -229 -268 -243 -186 -119 -95 -75 -51 -23 -7 -1 -3 -5 -14 -13 -1 0 0 0 0 0 -14 -25 -15 -10 -7 -21 -25 -62 -100 -44 -2 0 0 0 0 0 0
-487 -436 -393 -328 -264 -216 -220 -225 -192 -141 -108 -88 -58 -18 -1 0 0 -6 -17 -7 0 0 0 0 0 -24 -26 -38 -23 -18 -17 -45 -71 -72 -49 -14 -20 0 0 0 0 0 -1
-490 -472 -412 -338 -280 -234 -199 -193 -184 -154 -115 -84 -58 -21 -1 0 -2 -8 -20 -12 -4 -7 -15 -12 -17 -31 -25 -29 -24 -31 -64 -72 -91 -88 -82 -55 -13 0 0 0 0 0 -1
-525 -499 -412 -327 -266 -234 -211 -213 -189 -154 -121 -69 -51 -35 -6 -2 -3 -13 -20 -18 -10 -11 -27 -22 -14 -27 -35 -21 -40 -55 -85 -58 -82 -83 -66 -44 -2 0 0 0 0 0 0
-561 -521 -408 -319 -264 -236 -218 -218 -212 -151 -115 -70 -43 -33 -27 -6 -9 -20 -22 -29 -44 -67 -75 -44 -58 -10 -22 -32 -48 -70 -84 -93 -90 -63 -28 -13 -4 0 0 0 0 0 0
-500 -548 -476 -403 -336 -302 -269 -227 -199 -143 -118 -74 -40 -34 -39 -9 -12 -55 -76 -75 -102 -97 -99 -104 -116 -90 -11 -62 -64 -108 -103 -86 -81 -73 -51 -29 0 0 0 0 0 0 0
-347 -449 -489 -468 -415 -356 -315 -244 -193 -165 -124 -118 -84 -73 -78 -70 -91 -94 -163 -109 -157 -154 -106 -101 -107 -149 -7 -44 -123 -96 -107 -114 -101 -96 -102 -10 0 0 0 0 0 -2 0
-264 -368 -456 -461 -427 -377 -249 -238 -231 -202 -221 -224 -167 -173 -202 -186 -197 -209 -250 -108 -210 -179 -122 -66 -93 -34 -13 -50 -102 -127 0 0 -105 -95 -62 -34 -3 0 0 0 -3 -10 -10
-244 -277 -367 -419 -389 -353 -250 -310 -289 -218 -274 -294 -246 -317 -328 -279 -190 -282 -306 -129 -210 -120 -115 -83 -63 -55 -8 -45 -71 0 0 0 0 -103 -70 -35 -3 0 0 0 -8 -18 -34
-193 -239 -308 -339 -326 -291 -274 -311 -289 -267 -293 -307 -347 -332 -281 -272 -258 -224 -214 -220 -190 -201 -163 -131 -125 -31 -14 -29 -87 0 0 0 -17 -125 -80 -49 -8 -1 0 0 -5 -38 -112
-190 -178 -232 -271 -247 -243 -261 -299 -256 -252 -270 -290 -354 -265 -275 -343 -377 -293 -241 -257 -200 -188 -128 -90 -62 -32 -9 -20 -94 -178 0 0 -85 -128 -91 -40 -11 -3 0 0 -15 -110 -7
-193 -176 -221 -236 -183 -220 -240 -263 -265 -234 -243 -294 -329 -251 -307 -294 -362 -373 0 -270 -201 -176 -118 -118 0 -88 -38 -28 -82 -42 0 0 0 0 -113 -37 -73 -69 -13 -12 -41 -133 -3
-11 -191 -213 -238 -212 -196 -239 -255 -312 -317 -279 -248 -300 -286 -279 -347 -359 -420 -282 -340 -211 -167 -79 -63 -81 -76 -74 -62 -48 0 0 0 0 0 -135 0 0 -13 -16 -130 -157 -7 -3
0 -204 -218 -210 -222 -218 -239 -244 -303 -354 -329 -283 -306 -270 -257 -270 -269 -287 -278 -59 -222 -82 -69 -64 -75 -87 -73 -93 -81 -19 -56 0 0 0 0 0 0 0 0 -20 -10 -5 -3
0 -179 -190 -209 -230 -256 -265 -271 -315 -338 -373 -395 -334 -283 -257 -222 -225 -205 -202 -194 -158 -87 -44 -45 -69 -88 -86 -89 -64 -72 0 0 0 0 0 0 0 0 0 -19 -17 -23 -11
0 -356 -193 -208 -227 -246 -250 -270 -305 -293 -355 -327 -369 -275 -273 -234 -260 -200 -191 -207 -105 -50 -10 -8 0 0 -101 -83 -13 -9 0 0 0 0 0 0 0 0 0 0 -40 -35 -21
0 -332 -203 -200 -226 -257 -240 -279 -284 -255 -295 -364 -365 -333 -259 -235 -236 -222 -300 -206 -65 -86 -1 0 0 0 -35 -28 -6 0 0 0 0 0 0 0 0 0 0 0 0 0 -36
0 -287 -209 -235 -305 -287 -317 -274 -353 -405 -327 -313 -428 -377 -335 -313 -304 -267 -220 -149 -103 0 0 0 0 -2 -28 -14 -13 0 -1 0 0 0 0 0 0 0 0 0 0 0 0
0 -245 -211 -251 -318 -293 -351 -494 -535 -555 -514 -401 -371 -424 -365 -335 -303 -269 -165 -99 -26 -1 0 0 0 -6 -21 0 -1 0 -2 0 0 0 0 0 0 0 0 0 0 0 0
0 -253 -220 -254 -290 -366 -465 -390 -485 -465 -474 -432 -364 -487 -410 -292 -293 -280 -155 -157 0 0 0 -1 -74 -66 -30 -4 0 0 0 0 0 0 0 0 0 0 0 0 0 0 0
-351 -214 -202 -239 -325 -424 -404 -441 -497 -511 -594 -567 -498 -442 -433 -204 -285 -227 -187 -189 -2 0 -3 -4 -63 -4 -36 -1 0 0 0 0 0 0 0 0 0 0 0 0 0 0 0
0 -148 -155 -210 -343 -378 -377 -457 -501 -521 -598 -544 -468 -398 -357 -318 -295 -269 -150 -129 -28 -8 -63 -51 -35 -13 -22 0 0 0 0 0 0 0 0 0 0 0 0 0 0 0 0
Wind_Speed
6 11 12 14 18 19 17 15 15 14 14 14 14 14 15 15 15 15 15 15 17 18 18 18 15 13 12 13 14 15 13 15 14 17 17 17 20 21 19 17 17 14 17
13 10 10 11 14 18 18 15 15 14 14 13 12 12 13 14 14 15 15 14 14 18 19 18 16 15 16 15 14 14 14 14 14 16 17 18 18 20 19 16 16 15 17
14 11 10 10 13 15 17 16 15 15 15 14 12 11 12 13 14 14 13 13 14 17 18 17 16 15 16 15 15 14 15 15 15 14 14 7 11 19 19 17 17 17 18
16 12 10 11 11 14 16 15 14 14 15 14 13 11 12 12 13 14 13 13 15 15 16 17 16 16 16 15 15 15 16 15 15 14 7 8 11 19 20 19 19 19 18
13 12 11 13 12 13 16 16 14 14 13 13 13 12 11 13 14 14 13 14 14 16 16 16 16 16 15 14 14 15 16 14 13 10 6 7 8 16 19 18 17 18 16
12 10 12 12 12 13 14 15 15 14 13 13 13 13 12 12 13 13 13 13 14 14 15 15 15 15 13 14 14 15 14 15 12 8 8 11 9 18 20 18 17 17 16
11 9 11 12 12 13 14 15 15 14 12 13 13 13 12 12 12 12 12 13 14 14 13 13 14 13 12 13 13 13 13 15 9 8 8 8 10 20 22 20 18 17 16
14 11 9 12 11 12 13 13 13 14 13 12 12 12 12 11 11 12 12 10 9 6 4 6 8 11 11 12 13 10 15 15 9 8 9 7 16 20 21 21 18 17 18
14 14 9 7 9 9 10 11 12 13 13 12 12 12 12 11 10 11 10 11 13 12 11 11 11 7 13 13 12 13 14 16 9 6 8 7 18 21 22 22 20 18 18
10 14 13 9 7 6 6 10 11 12 13 12 11 12 12 11 9 12 15 16 15 14 14 15 12 7 19 15 12 14 16 16 10 8 6 8 20 21 22 22 20 18 17
7 7 10 11 9 7 5 6 10 12 11 11 8 9 10 5 8 12 10 16 15 14 13 13 10 13 17 14 14 14 14 5 7 7 4 18 21 23 22 21 20 18 17
10 9 9 11 11 8 6 5 5 6 4 5 5 5 5 6 6 7 8 11 12 11 12 10 11 7 9 3 5 10 4 5 4 6 5 19 21 23 22 21 20 19 18
13 9 11 12 11 12 7 5 3 3 3 4 6 5 6 6 6 4 4 4 5 10 4 5 7 6 4 3 5 5 6 6 4 3 9 15 18 19 21 20 20 20 17
12 15 15 14 14 12 8 7 6 5 4 4 5 7 7 5 6 5 5 8 5 4 7 5 5 6 4 4 9 8 6 6 5 3 6 13 15 18 20 20 19 18 17
14 13 14 14 13 12 12 9 7 7 6 6 6 8 9 9 8 7 6 7 6 6 7 6 8 8 9 8 6 9 6 8 9 5 5 12 12 13 18 19 19 18 16
14 16 14 14 12 14 11 12 9 7 7 6 6 8 9 8 8 7 7 7 6 7 7 7 7 7 7 7 4 5 8 9 9 8 6 6 11 11 12 16 18 17 18
9 16 17 16 14 14 11 11 9 7 7 7 7 10 10 9 9 9 7 7 8 7 8 7 4 3 3 5 7 4 3 9 9 10 7 5 7 10 11 12 14 14 16
13 17 17 14 15 14 13 10 7 6 7 7 7 8 10 10 10 9 8 7 7 7 7 7 8 6 4 4 7 6 4 6 10 10 8 6 5 5 7 11 13 16 16
17 13 17 16 17 17 11 10 9 6 7 6 7 7 9 10 11 9 8 8 9 8 8 8 6 6 4 4 7 6 6 7 9 8 9 8 6 5 4 10 12 13 15
16 13 19 16 17 14 10 7 5 5 5 6 6 7 10 8 10 8 7 9 9 8 7 7 8 3 4 6 7 7 4 7 8 8 10 8 6 7 5 6 7 7 13
13 14 18 17 15 14 11 11 8 9 6 5 3 6 8 9 11 10 6 8 9 8 9 9 6 9 4 5 6 4 2 5 9 8 7 8 8 8 6 6 5 4 6
10 15 19 20 20 17 13 10 6 9 4 5 4 4 5 7 7 9 10 9 9 7 10 10 9 6 4 7 3 9 4 3 1 6 7 8 9 6 6 6 6 6 5
9 15 19 21 21 16 15 9 6 5 5 3 5 4 4 7 7 8 9 9 9 8 9 10 9 12 8 5 10 4 5 5 7 1 4 6 6 6 7 7 8 7 6
9 17 21 21 22 16 18 12 17 13 12 6 6 3 4 6 7 9 9 9 9 8 9 9 9 8 8 9 8 2 2 4 6 4 1 4 7 7 7 6 8 7 8
4 15 18 20 19 18 17 14 12 11 5 6 5 7 5 5 6 8 10 11 10 7 7 9 9 9 8 9 9 6 3 3 2 4 5 3 0 8 7 8 8 8 9
12 4 12 19 18 17 15 16 16 15 11 10 8 7 6 5 5 7 8 8 8 8 10 9 11 11 10 10 5 7 8 7 6 4 3 4 8 3 4 6 7 7 8
Wind_Direction
165 169 183 172 148 142 137 135 130 126 124 123 125 127 126 123 122 121 127 138 143 141 139 139 132 124 124 127 120 118 116 118 122 117 119 123 125 120 113 108 110 107 107
140 158 177 173 151 142 137 136 133 129 126 124 126 129 131 130 129 130 136 139 142 140 144 146 140 136 130 126 120 120 124 120 119 121 125 128 124 122 117 109 109 107 108
139 154 169 170 153 145 136 137 135 134 132 132 132 137 134 135 135 136 137 138 146 148 149 149 145 138 134 131 131 129 125 119 116 118 117 120 122 124 118 111 110 112 112
144 151 158 161 156 145 138 139 139 141 142 142 143 148 144 141 142 143 145 151 151 150 153 152 147 142 136 133 136 132 124 116 113 111 111 120 121 126 123 118 118 118 117
143 151 156 156 152 152 143 143 145 147 149 150 149 153 152 151 151 151 155 158 155 157 159 159 151 146 142 140 137 136 132 120 115 104 110 102 118 127 123 122 120 119 118
144 148 149 151 153 155 151 147 149 151 158 158 157 160 161 165 162 162 164 161 163 165 167 166 150 154 143 141 142 141 132 122 115 117 109 116 118 131 129 125 121 123 119
145 142 151 153 157 157 154 152 155 157 165 167 166 163 166 172 172 172 174 174 168 179 181 172 165 147 152 145 142 145 125 124 124 120 113 116 132 137 132 127 126 125 122
138 138 146 156 160 159 159 159 159 161 167 174 173 166 171 177 175 183 184 184 178 173 85 120 127 170 169 153 146 133 125 127 116 119 122 124 135 135 132 129 122 117 115
139 135 141 153 156 158 162 161 160 164 167 177 178 175 174 179 182 185 179 142 131 126 128 140 141 209 190 166 144 133 124 120 116 123 127 132 134 137 134 130 125 124 127
143 144 150 148 143 150 173 164 161 165 168 178 184 189 172 165 171 148 146 145 135 147 152 161 165 151 217 168 149 131 128 127 133 137 131 137 135 139 136 136 136 134 135
134 154 153 149 147 153 168 176 166 164 173 165 164 174 146 147 143 150 159 153 158 161 159 173 170 133 254 169 152 141 133 136 150 140 142 146 146 146 145 144 143 141 140
163 173 166 158 156 153 168 174 174 162 174 152 160 169 138 141 145 158 163 154 160 167 167 166 118 147 209 174 160 127 125 130 146 152 162 159 153 155 154 151 149 146 146
181 163 177 162 164 161 166 166 186 168 168 163 169 162 130 131 141 140 137 151 151 157 144 112 142 130 179 183 190 144 159 140 136 164 166 160 159 159 158 158 155 149 152
176 183 178 173 167 172 159 168 179 176 180 179 173 154 143 144 151 152 165 174 156 146 135 149 141 149 161 211 203 157 156 139 150 142 169 165 159 165 166 166 155 152 149
183 188 185 173 174 170 170 165 175 182 184 186 162 165 158 159 165 156 169 168 162 161 164 161 162 179 177 211 203 167 152 146 155 152 158 152 155 171 174 175 162 158 155
199 187 181 183 184 170 172 172 174 177 179 172 166 173 161 158 159 162 160 163 171 174 176 166 173 183 188 196 168 171 150 149 148 147 145 159 158 166 180 180 168 166 166
202 197 181 185 178 176 179 174 169 171 171 178 169 171 163 161 159 158 165 162 172 175 177 168 175 175 181 163 123 115 168 148 147 140 148 154 158 163 170 181 169 169 169
223 184 189 182 182 179 173 175 165 162 167 171 161 168 165 165 163 160 171 171 166 170 179 186 186 175 181 160 136 134 173 166 153 146 153 155 156 159 168 166 162 165 170
218 186 185 180 182 180 172 165 156 149 150 158 156 165 170 169 168 167 176 171 166 176 186 187 186 167 158 146 135 141 187 172 154 154 161 161 161 154 159 167 164 162 173
224 177 178 179 181 162 157 147 139 143 147 149 157 170 174 171 164 169 172 164 167 172 178 187 183 165 169 172 153 155 218 167 155 163 171 160 172 159 165 163 170 175 182
232 174 172 167 170 157 164 162 163 169 169 155 155 168 178 175 172 171 158 159 163 173 187 183 165 164 162 170 144 130 37 161 168 165 168 164 173 175 169 165 166 166 194
204 183 170 172 171 177 164 179 164 158 161 150 139 184 178 166 169 167 164 171 171 169 180 180 171 168 160 175 162 148 153 109 230 172 166 171 178 168 174 178 173 173 182
184 174 174 173 176 172 152 137 116 97 88 113 176 186 188 166 162 163 173 174 173 185 187 182 182 179 181 168 190 164 154 176 140 150 192 180 162 172 184 184 188 188 184
206 184 178 175 171 166 153 155 164 168 163 173 180 157 170 164 166 163 170 173 173 182 184 190 180 183 171 174 165 183 40 134 150 144 184 199 169 185 181 191 192 191 189
267 183 180 171 167 163 159 161 160 154 143 139 144 167 177 171 165 168 173 179 179 184 179 196 187 179 177 168 174 151 133 125 97 145 149 181 245 201 194 186 193 197 198
350 198 176 170 169 157 160 161 158 154 152 149 157 172 183 190 186 173 179 181 180 187 188 190 190 188 179 176 170 162 155 165 176 137 106 165 188 178 181 190 191 201 203